Year,Month,Day,Hour,Minute,Value (Times are PST for temperature in C)
2008,09,23,00,00,8.00
2008,09,23,00,01,7.90
2008,09,23,00,02,7.80
2008,09,23,00,03,7.80
2008,09,23,00,04,7.80
2008,09,23,00,05,7.80
2008,09,23,00,06,7.80
2008,09,23,00,07,7.80
2008,09,23,00,08,7.80
2008,09,23,00,09,7.70
2008,09,23,00,10,7.70
2008,09,23,00,11,7.70
2008,09,23,00,12,7.70
2008,09,23,00,13,7.70
2008,09,23,00,14,7.70
2008,09,23,00,15,7.60
2008,09,23,00,16,7.60
2008,09,23,00,17,7.60
2008,09,23,00,18,7.60
2008,09,23,00,19,7.60
2008,09,23,00,20,7.60
2008,09,23,00,21,7.60
2008,09,23,00,22,7.50
2008,09,23,00,23,7.50
2008,09,23,00,24,7.50
2008,09,23,00,25,7.40
2008,09,23,00,26,7.40
2008,09,23,00,27,7.40
2008,09,23,00,28,7.30
2008,09,23,00,29,7.30
2008,09,23,00,30,7.20
2008,09,23,00,31,7.20
2008,09,23,00,32,7.10
2008,09,23,00,33,7.10
2008,09,23,00,34,7.00
2008,09,23,00,35,6.90
2008,09,23,00,36,6.80
2008,09,23,00,37,6.80
2008,09,23,00,38,6.80
2008,09,23,00,39,6.70
2008,09,23,00,40,6.70
2008,09,23,00,41,6.70
2008,09,23,00,42,6.70
2008,09,23,00,43,6.70
2008,09,23,00,44,6.70
2008,09,23,00,45,6.80
2008,09,23,00,46,6.80
2008,09,23,00,47,6.80
2008,09,23,00,48,6.80
2008,09,23,00,49,6.80
2008,09,23,00,50,6.70
2008,09,23,00,51,6.70
2008,09,23,00,52,6.70
2008,09,23,00,53,6.70
2008,09,23,00,54,6.60
2008,09,23,00,55,6.60
2008,09,23,00,56,6.50
2008,09,23,00,57,6.50
2008,09,23,00,58,6.50
2008,09,23,00,59,6.40
2008,09,23,01,00,6.40
2008,09,23,01,01,6.40
2008,09,23,01,02,6.40
2008,09,23,01,03,6.40
2008,09,23,01,04,6.40
2008,09,23,01,05,6.40
2008,09,23,01,06,6.40
2008,09,23,01,07,6.40
2008,09,23,01,08,6.40
2008,09,23,01,09,6.40
2008,09,23,01,10,6.40
2008,09,23,01,11,6.30
2008,09,23,01,12,6.30
2008,09,23,01,13,6.30
2008,09,23,01,14,6.30
2008,09,23,01,15,6.30
2008,09,23,01,16,6.30
2008,09,23,01,17,6.30
2008,09,23,01,18,6.30
2008,09,23,01,19,6.30
2008,09,23,01,20,6.30
2008,09,23,01,21,6.30
2008,09,23,01,22,6.30
2008,09,23,01,23,6.30
2008,09,23,01,24,6.30
2008,09,23,01,25,6.30
2008,09,23,01,26,6.30
2008,09,23,01,27,6.30
2008,09,23,01,28,6.20
2008,09,23,01,29,6.20
2008,09,23,01,30,6.20
2008,09,23,01,31,6.20
2008,09,23,01,32,6.20
2008,09,23,01,33,6.20
2008,09,23,01,34,6.20
2008,09,23,01,35,6.20
2008,09,23,01,36,6.20
2008,09,23,01,37,6.20
2008,09,23,01,38,6.20
2008,09,23,01,39,6.20
2008,09,23,01,40,6.20
2008,09,23,01,41,6.20
2008,09,23,01,42,6.10
2008,09,23,01,43,6.10
2008,09,23,01,44,6.10
2008,09,23,01,45,6.10
2008,09,23,01,46,6.00
2008,09,23,01,47,6.00
2008,09,23,01,48,6.00
2008,09,23,01,49,6.00
2008,09,23,01,50,5.90
2008,09,23,01,51,5.90
2008,09,23,01,52,5.80
2008,09,23,01,53,5.80
2008,09,23,01,54,5.70
2008,09,23,01,55,5.70
2008,09,23,01,56,5.60
2008,09,23,01,57,5.60
2008,09,23,01,58,5.50
2008,09,23,01,59,5.50
2008,09,23,02,00,5.50
2008,09,23,02,01,5.50
2008,09,23,02,02,5.50
2008,09,23,02,03,5.50
2008,09,23,02,04,5.50
2008,09,23,02,05,5.60
2008,09,23,02,06,5.60
2008,09,23,02,07,5.60
2008,09,23,02,08,5.60
2008,09,23,02,09,5.60
2008,09,23,02,10,5.60
2008,09,23,02,11,5.60
2008,09,23,02,12,5.60
2008,09,23,02,13,5.60
2008,09,23,02,14,5.60
2008,09,23,02,15,5.50
2008,09,23,02,16,5.50
2008,09,23,02,17,5.50
2008,09,23,02,18,5.40
2008,09,23,02,19,5.40
2008,09,23,02,20,5.40
2008,09,23,02,21,5.40
2008,09,23,02,22,5.40
2008,09,23,02,23,5.30
2008,09,23,02,24,5.30
2008,09,23,02,25,5.30
2008,09,23,02,26,5.30
2008,09,23,02,27,5.30
2008,09,23,02,28,5.30
2008,09,23,02,29,5.30
2008,09,23,02,30,5.30
2008,09,23,02,31,5.30
2008,09,23,02,32,5.30
2008,09,23,02,33,5.40
2008,09,23,02,34,5.40
2008,09,23,02,35,5.40
2008,09,23,02,36,5.40
2008,09,23,02,37,5.40
2008,09,23,02,38,5.40
2008,09,23,02,39,5.40
2008,09,23,02,40,5.40
2008,09,23,02,41,5.40
2008,09,23,02,42,5.40
2008,09,23,02,43,5.40
2008,09,23,02,44,5.40
2008,09,23,02,45,5.40
2008,09,23,02,46,5.30
2008,09,23,02,47,5.30
2008,09,23,02,48,5.30
2008,09,23,02,49,5.30
2008,09,23,02,50,5.30
2008,09,23,02,51,5.30
2008,09,23,02,52,5.30
2008,09,23,02,53,5.30
2008,09,23,02,54,5.30
2008,09,23,02,55,5.30
2008,09,23,02,56,5.30
2008,09,23,02,57,5.30
2008,09,23,02,58,5.30
2008,09,23,02,59,5.30
2008,09,23,03,00,5.30
2008,09,23,03,01,5.30
2008,09,23,03,02,5.30
2008,09,23,03,03,5.20
2008,09,23,03,04,5.20
2008,09,23,03,05,5.20
2008,09,23,03,06,5.20
2008,09,23,03,07,5.20
2008,09,23,03,08,5.20
2008,09,23,03,09,5.20
2008,09,23,03,10,5.20
2008,09,23,03,11,5.20
2008,09,23,03,12,5.20
2008,09,23,03,13,5.20
2008,09,23,03,14,5.20
2008,09,23,03,15,5.20
2008,09,23,03,16,5.30
2008,09,23,03,17,5.30
2008,09,23,03,18,5.30
2008,09,23,03,19,5.30
2008,09,23,03,20,5.30
2008,09,23,03,21,5.30
2008,09,23,03,22,5.30
2008,09,23,03,23,5.30
2008,09,23,03,24,5.30
2008,09,23,03,25,5.20
2008,09,23,03,26,5.20
2008,09,23,03,27,5.20
2008,09,23,03,28,5.20
2008,09,23,03,29,5.20
2008,09,23,03,30,5.20
2008,09,23,03,31,5.20
2008,09,23,03,32,5.20
2008,09,23,03,33,5.20
2008,09,23,03,34,5.20
2008,09,23,03,35,5.20
2008,09,23,03,36,5.20
2008,09,23,03,37,5.20
2008,09,23,03,38,5.20
2008,09,23,03,39,5.20
2008,09,23,03,40,5.20
2008,09,23,03,41,5.20
2008,09,23,03,42,5.20
2008,09,23,03,43,5.20
2008,09,23,03,44,5.20
2008,09,23,03,45,5.20
2008,09,23,03,46,5.20
2008,09,23,03,47,5.20
2008,09,23,03,48,5.20
2008,09,23,03,49,5.20
2008,09,23,03,50,5.20
2008,09,23,03,51,5.10
2008,09,23,03,52,5.10
2008,09,23,03,53,5.10
2008,09,23,03,54,5.10
2008,09,23,03,55,5.10
2008,09,23,03,56,5.10
2008,09,23,03,57,5.10
2008,09,23,03,58,5.10
2008,09,23,03,59,5.00
2008,09,23,04,00,5.00
2008,09,23,04,01,5.00
2008,09,23,04,02,4.90
2008,09,23,04,03,4.90
2008,09,23,04,04,4.90
2008,09,23,04,05,4.90
2008,09,23,04,06,4.90
2008,09,23,04,07,4.90
2008,09,23,04,08,4.90
2008,09,23,04,09,4.90
2008,09,23,04,10,4.90
2008,09,23,04,11,4.90
2008,09,23,04,12,4.90
2008,09,23,04,13,4.90
2008,09,23,04,14,4.90
2008,09,23,04,15,4.90
2008,09,23,04,16,4.90
2008,09,23,04,17,4.90
2008,09,23,04,18,4.90
2008,09,23,04,19,4.90
2008,09,23,04,20,4.90
2008,09,23,04,21,4.90
2008,09,23,04,22,5.00
2008,09,23,04,23,5.00
2008,09,23,04,24,5.00
2008,09,23,04,25,5.00
2008,09,23,04,26,4.90
2008,09,23,04,27,4.90
2008,09,23,04,28,4.90
2008,09,23,04,29,4.90
2008,09,23,04,30,5.00
2008,09,23,04,31,5.00
2008,09,23,04,32,4.90
2008,09,23,04,33,4.90
2008,09,23,04,34,4.90
2008,09,23,04,35,4.90
2008,09,23,04,36,4.90
2008,09,23,04,37,4.90
2008,09,23,04,38,4.90
2008,09,23,04,39,4.90
2008,09,23,04,40,4.90
2008,09,23,04,41,4.90
2008,09,23,04,42,4.90
2008,09,23,04,43,4.90
2008,09,23,04,44,4.90
2008,09,23,04,45,4.90
2008,09,23,04,46,4.90
2008,09,23,04,47,4.90
2008,09,23,04,48,4.90
2008,09,23,04,49,4.90
2008,09,23,04,50,4.90
2008,09,23,04,51,4.90
2008,09,23,04,52,4.90
2008,09,23,04,53,4.90
2008,09,23,04,54,4.90
2008,09,23,04,55,5.00
2008,09,23,04,56,5.00
2008,09,23,04,57,5.10
2008,09,23,04,58,5.10
2008,09,23,04,59,5.00
2008,09,23,05,00,5.00
2008,09,23,05,01,5.00
2008,09,23,05,02,4.90
2008,09,23,05,03,4.90
2008,09,23,05,04,4.90
2008,09,23,05,05,4.90
2008,09,23,05,06,4.80
2008,09,23,05,07,4.80
2008,09,23,05,08,4.80
2008,09,23,05,09,4.80
2008,09,23,05,10,4.70
2008,09,23,05,11,4.70
2008,09,23,05,12,4.70
2008,09,23,05,13,4.70
2008,09,23,05,14,4.70
2008,09,23,05,15,4.70
2008,09,23,05,16,4.80
2008,09,23,05,17,4.80
2008,09,23,05,18,4.70
2008,09,23,05,19,4.70
2008,09,23,05,20,4.70
2008,09,23,05,21,4.70
2008,09,23,05,22,4.70
2008,09,23,05,23,4.70
2008,09,23,05,24,4.70
2008,09,23,05,25,4.70
2008,09,23,05,26,4.70
2008,09,23,05,27,4.70
2008,09,23,05,28,4.70
2008,09,23,05,29,4.70
2008,09,23,05,30,4.70
2008,09,23,05,31,4.70
2008,09,23,05,32,4.70
2008,09,23,05,33,4.70
2008,09,23,05,34,4.70
2008,09,23,05,35,4.70
2008,09,23,05,36,4.70
2008,09,23,05,37,4.70
2008,09,23,05,38,4.60
2008,09,23,05,39,4.60
2008,09,23,05,40,4.60
2008,09,23,05,41,4.60
2008,09,23,05,42,4.60
2008,09,23,05,43,4.60
2008,09,23,05,44,4.60
2008,09,23,05,45,4.60
2008,09,23,05,46,4.60
2008,09,23,05,47,4.60
2008,09,23,05,48,4.60
2008,09,23,05,49,4.60
2008,09,23,05,50,4.60
2008,09,23,05,51,4.60
2008,09,23,05,52,4.60
2008,09,23,05,53,4.60
2008,09,23,05,54,4.60
2008,09,23,05,55,4.60
2008,09,23,05,56,4.60
2008,09,23,05,57,4.60
2008,09,23,05,58,4.60
2008,09,23,05,59,4.60
2008,09,23,06,00,4.60
2008,09,23,06,01,4.60
2008,09,23,06,02,4.60
2008,09,23,06,03,4.50
2008,09,23,06,04,4.50
2008,09,23,06,05,4.40
2008,09,23,06,06,4.40
2008,09,23,06,07,4.40
2008,09,23,06,08,4.40
2008,09,23,06,09,4.30
2008,09,23,06,10,4.30
2008,09,23,06,11,4.30
2008,09,23,06,12,4.30
2008,09,23,06,13,4.30
2008,09,23,06,14,4.30
2008,09,23,06,15,4.30
2008,09,23,06,16,4.40
2008,09,23,06,17,4.40
2008,09,23,06,18,4.40
2008,09,23,06,19,4.40
2008,09,23,06,20,4.40
2008,09,23,06,21,4.40
2008,09,23,06,22,4.40
2008,09,23,06,23,4.40
2008,09,23,06,24,4.40
2008,09,23,06,25,4.40
2008,09,23,06,26,4.40
2008,09,23,06,27,4.30
2008,09,23,06,28,4.30
2008,09,23,06,29,4.30
2008,09,23,06,30,4.30
2008,09,23,06,31,4.30
2008,09,23,06,32,4.30
2008,09,23,06,33,4.30
2008,09,23,06,34,4.20
2008,09,23,06,35,4.20
2008,09,23,06,36,4.20
2008,09,23,06,37,4.20
2008,09,23,06,38,4.20
2008,09,23,06,39,4.30
2008,09,23,06,40,4.30
2008,09,23,06,41,4.30
2008,09,23,06,42,4.30
2008,09,23,06,43,4.40
2008,09,23,06,44,4.40
2008,09,23,06,45,4.40
2008,09,23,06,46,4.50
2008,09,23,06,47,4.50
2008,09,23,06,48,4.60
2008,09,23,06,49,4.60
2008,09,23,06,50,4.60
2008,09,23,06,51,4.60
2008,09,23,06,52,4.60
2008,09,23,06,53,4.70
2008,09,23,06,54,4.70
2008,09,23,06,55,4.80
2008,09,23,06,56,4.80
2008,09,23,06,57,4.80
2008,09,23,06,58,4.90
2008,09,23,06,59,4.90
2008,09,23,07,00,4.90
2008,09,23,07,01,4.90
2008,09,23,07,02,4.90
2008,09,23,07,03,4.90
2008,09,23,07,04,4.90
2008,09,23,07,05,4.80
2008,09,23,07,06,4.80
2008,09,23,07,07,4.80
2008,09,23,07,08,4.90
2008,09,23,07,09,4.90
2008,09,23,07,10,4.90
2008,09,23,07,11,4.90
2008,09,23,07,12,4.90
2008,09,23,07,13,4.90
2008,09,23,07,14,4.90
2008,09,23,07,15,4.90
2008,09,23,07,16,4.90
2008,09,23,07,17,4.90
2008,09,23,07,18,4.90
2008,09,23,07,19,4.90
2008,09,23,07,20,4.90
2008,09,23,07,21,4.80
2008,09,23,07,22,4.80
2008,09,23,07,23,4.80
2008,09,23,07,24,4.90
2008,09,23,07,25,4.90
2008,09,23,07,26,4.90
2008,09,23,07,27,4.90
2008,09,23,07,28,4.90
2008,09,23,07,29,5.00
2008,09,23,07,30,5.00
2008,09,23,07,31,5.00
2008,09,23,07,32,5.10
2008,09,23,07,33,5.10
2008,09,23,07,34,5.10
2008,09,23,07,35,5.20
2008,09,23,07,36,5.20
2008,09,23,07,37,5.30
2008,09,23,07,38,5.30
2008,09,23,07,39,5.30
2008,09,23,07,40,5.30
2008,09,23,07,41,5.30
2008,09,23,07,42,5.30
2008,09,23,07,43,5.40
2008,09,23,07,44,5.40
2008,09,23,07,45,5.40
2008,09,23,07,46,5.40
2008,09,23,07,47,5.40
2008,09,23,07,48,5.40
2008,09,23,07,49,5.40
2008,09,23,07,50,5.40
2008,09,23,07,51,5.40
2008,09,23,07,52,5.40
2008,09,23,07,53,5.30
2008,09,23,07,54,5.30
2008,09,23,07,55,5.30
2008,09,23,07,56,5.40
2008,09,23,07,57,5.40
2008,09,23,07,58,5.50
2008,09,23,07,59,5.50
2008,09,23,08,00,5.50
2008,09,23,08,01,5.50
2008,09,23,08,02,5.60
2008,09,23,08,03,5.60
2008,09,23,08,04,5.60
2008,09,23,08,05,5.70
2008,09,23,08,06,5.70
2008,09,23,08,07,5.80
2008,09,23,08,08,5.80
2008,09,23,08,09,5.90
2008,09,23,08,10,5.90
2008,09,23,08,11,5.90
2008,09,23,08,12,6.00
2008,09,23,08,13,6.00
2008,09,23,08,14,6.10
2008,09,23,08,15,6.10
2008,09,23,08,16,6.20
2008,09,23,08,17,6.30
2008,09,23,08,18,6.30
2008,09,23,08,19,6.40
2008,09,23,08,20,6.50
2008,09,23,08,21,6.50
2008,09,23,08,22,6.60
2008,09,23,08,23,6.70
2008,09,23,08,24,6.80
2008,09,23,08,25,6.90
2008,09,23,08,26,7.00
2008,09,23,08,27,7.00
2008,09,23,08,28,7.10
2008,09,23,08,29,7.20
2008,09,23,08,30,7.20
2008,09,23,08,31,7.20
2008,09,23,08,32,7.30
2008,09,23,08,33,7.30
2008,09,23,08,34,7.40
2008,09,23,08,35,7.40
2008,09,23,08,36,7.50
2008,09,23,08,37,7.50
2008,09,23,08,38,7.60
2008,09,23,08,39,7.60
2008,09,23,08,40,7.70
2008,09,23,08,41,7.70
2008,09,23,08,42,7.80
2008,09,23,08,43,7.80
2008,09,23,08,44,7.80
2008,09,23,08,45,7.90
2008,09,23,08,46,7.90
2008,09,23,08,47,8.00
2008,09,23,08,48,8.10
2008,09,23,08,49,8.20
2008,09,23,08,50,8.30
2008,09,23,08,51,8.40
2008,09,23,08,52,8.60
2008,09,23,08,53,8.60
2008,09,23,08,54,8.70
2008,09,23,08,55,8.80
2008,09,23,08,56,9.00
2008,09,23,08,57,9.10
2008,09,23,08,58,9.20
2008,09,23,08,59,9.30
2008,09,23,09,00,9.40
2008,09,23,09,01,9.40
2008,09,23,09,02,9.50
2008,09,23,09,03,9.60
2008,09,23,09,04,9.60
2008,09,23,09,05,9.60
2008,09,23,09,06,9.70
2008,09,23,09,07,9.70
2008,09,23,09,08,9.70
2008,09,23,09,09,9.70
2008,09,23,09,10,9.70
2008,09,23,09,11,9.70
2008,09,23,09,12,9.70
2008,09,23,09,13,9.70
2008,09,23,09,14,9.70
2008,09,23,09,15,9.70
2008,09,23,09,16,9.70
2008,09,23,09,17,9.80
2008,09,23,09,18,9.80
2008,09,23,09,19,9.90
2008,09,23,09,20,10.00
2008,09,23,09,21,10.10
2008,09,23,09,22,10.20
2008,09,23,09,23,10.30
2008,09,23,09,24,10.40
2008,09,23,09,25,10.40
2008,09,23,09,26,10.50
2008,09,23,09,27,10.50
2008,09,23,09,28,10.60
2008,09,23,09,29,10.60
2008,09,23,09,30,10.70
2008,09,23,09,31,10.70
2008,09,23,09,32,10.70
2008,09,23,09,33,10.80
2008,09,23,09,34,10.80
2008,09,23,09,35,10.80
2008,09,23,09,36,10.80
2008,09,23,09,37,10.80
2008,09,23,09,38,10.80
2008,09,23,09,39,10.90
2008,09,23,09,40,11.00
2008,09,23,09,41,11.10
2008,09,23,09,42,11.20
2008,09,23,09,43,11.20
2008,09,23,09,44,11.30
2008,09,23,09,45,11.40
2008,09,23,09,46,11.60
2008,09,23,09,47,11.70
2008,09,23,09,48,11.80
2008,09,23,09,49,11.90
2008,09,23,09,50,12.00
2008,09,23,09,51,12.00
2008,09,23,09,52,12.10
2008,09,23,09,53,12.10
2008,09,23,09,54,12.20
2008,09,23,09,55,12.10
2008,09,23,09,56,12.10
2008,09,23,09,57,12.00
2008,09,23,09,58,11.90
2008,09,23,09,59,11.80
2008,09,23,10,00,11.80
2008,09,23,10,01,11.80
2008,09,23,10,02,11.80
2008,09,23,10,03,11.80
2008,09,23,10,04,11.80
2008,09,23,10,05,11.80
2008,09,23,10,06,11.80
2008,09,23,10,07,11.90
2008,09,23,10,08,12.00
2008,09,23,10,09,12.10
2008,09,23,10,10,12.10
2008,09,23,10,11,12.20
2008,09,23,10,12,12.30
2008,09,23,10,13,12.30
2008,09,23,10,14,12.40
2008,09,23,10,15,12.40
2008,09,23,10,16,12.40
2008,09,23,10,17,12.50
2008,09,23,10,18,12.60
2008,09,23,10,19,12.70
2008,09,23,10,20,12.70
2008,09,23,10,21,12.80
2008,09,23,10,22,12.90
2008,09,23,10,23,12.90
2008,09,23,10,24,12.90
2008,09,23,10,25,12.80
2008,09,23,10,26,12.80
2008,09,23,10,27,12.70
2008,09,23,10,28,12.70
2008,09,23,10,29,12.60
2008,09,23,10,30,12.60
2008,09,23,10,31,12.60
2008,09,23,10,32,12.60
2008,09,23,10,33,12.50
2008,09,23,10,34,12.50
2008,09,23,10,35,12.40
2008,09,23,10,36,12.30
2008,09,23,10,37,12.20
2008,09,23,10,38,12.20
2008,09,23,10,39,12.20
2008,09,23,10,40,12.30
2008,09,23,10,41,12.40
2008,09,23,10,42,12.50
2008,09,23,10,43,12.50
2008,09,23,10,44,12.60
2008,09,23,10,45,12.70
2008,09,23,10,46,12.70
2008,09,23,10,47,12.70
2008,09,23,10,48,12.80
2008,09,23,10,49,12.80
2008,09,23,10,50,12.80
2008,09,23,10,51,12.90
2008,09,23,10,52,12.90
2008,09,23,10,53,12.90
2008,09,23,10,54,12.90
2008,09,23,10,55,13.00
2008,09,23,10,56,12.90
2008,09,23,10,57,12.90
2008,09,23,10,58,12.90
2008,09,23,10,59,12.80
2008,09,23,11,00,12.90
2008,09,23,11,01,12.90
2008,09,23,11,02,12.90
2008,09,23,11,03,13.00
2008,09,23,11,04,13.00
2008,09,23,11,05,13.10
2008,09,23,11,06,13.10
2008,09,23,11,07,13.20
2008,09,23,11,08,13.20
2008,09,23,11,09,13.20
2008,09,23,11,10,13.20
2008,09,23,11,11,13.20
2008,09,23,11,12,13.20
2008,09,23,11,13,13.20
2008,09,23,11,14,13.20
2008,09,23,11,15,13.20
2008,09,23,11,16,13.20
2008,09,23,11,17,13.20
2008,09,23,11,18,13.20
2008,09,23,11,19,13.30
2008,09,23,11,20,13.30
2008,09,23,11,21,13.40
2008,09,23,11,22,13.50
2008,09,23,11,23,13.50
2008,09,23,11,24,13.50
2008,09,23,11,25,13.40
2008,09,23,11,26,13.30
2008,09,23,11,27,13.30
2008,09,23,11,28,13.40
2008,09,23,11,29,13.30
2008,09,23,11,30,13.30
2008,09,23,11,31,13.30
2008,09,23,11,32,13.30
2008,09,23,11,33,13.30
2008,09,23,11,34,13.30
2008,09,23,11,35,13.30
2008,09,23,11,36,13.20
2008,09,23,11,37,13.10
2008,09,23,11,38,13.00
2008,09,23,11,39,13.00
2008,09,23,11,40,13.00
2008,09,23,11,41,13.00
2008,09,23,11,42,13.00
2008,09,23,11,43,13.00
2008,09,23,11,44,13.10
2008,09,23,11,45,13.00
2008,09,23,11,46,13.00
2008,09,23,11,47,13.00
2008,09,23,11,48,13.00
2008,09,23,11,49,13.00
2008,09,23,11,50,13.00
2008,09,23,11,51,12.90
2008,09,23,11,52,12.90
2008,09,23,11,53,13.00
2008,09,23,11,54,13.00
2008,09,23,11,55,13.00
2008,09,23,11,56,13.00
2008,09,23,11,57,13.00
2008,09,23,11,58,13.10
2008,09,23,11,59,13.10
2008,09,23,12,00,13.10
2008,09,23,12,01,13.10
2008,09,23,12,02,13.10
2008,09,23,12,03,13.00
2008,09,23,12,04,12.90
2008,09,23,12,05,13.00
2008,09,23,12,06,13.00
2008,09,23,12,07,13.10
2008,09,23,12,08,13.10
2008,09,23,12,09,13.20
2008,09,23,12,10,13.20
2008,09,23,12,11,13.20
2008,09,23,12,12,13.20
2008,09,23,12,13,13.20
2008,09,23,12,14,13.30
2008,09,23,12,15,13.30
2008,09,23,12,16,13.30
2008,09,23,12,17,13.30
2008,09,23,12,18,13.30
2008,09,23,12,19,13.40
2008,09,23,12,20,13.40
2008,09,23,12,21,13.40
2008,09,23,12,22,13.40
2008,09,23,12,23,13.40
2008,09,23,12,24,13.40
2008,09,23,12,25,13.50
2008,09,23,12,26,13.60
2008,09,23,12,27,13.60
2008,09,23,12,28,13.70
2008,09,23,12,29,13.60
2008,09,23,12,30,13.70
2008,09,23,12,31,13.70
2008,09,23,12,32,13.70
2008,09,23,12,33,13.70
2008,09,23,12,34,13.60
2008,09,23,12,35,13.60
2008,09,23,12,36,13.60
2008,09,23,12,37,13.60
2008,09,23,12,38,13.60
2008,09,23,12,39,13.50
2008,09,23,12,40,13.50
2008,09,23,12,41,13.50
2008,09,23,12,42,13.50
2008,09,23,12,43,13.40
2008,09,23,12,44,13.40
2008,09,23,12,45,13.30
2008,09,23,12,46,13.40
2008,09,23,12,47,13.40
2008,09,23,12,48,13.40
2008,09,23,12,49,13.40
2008,09,23,12,50,13.40
2008,09,23,12,51,13.40
2008,09,23,12,52,13.30
2008,09,23,12,53,13.30
2008,09,23,12,54,13.30
2008,09,23,12,55,13.30
2008,09,23,12,56,13.30
2008,09,23,12,57,13.40
2008,09,23,12,58,13.40
2008,09,23,12,59,13.40
2008,09,23,13,00,13.40
2008,09,23,13,01,13.40
2008,09,23,13,02,13.40
2008,09,23,13,03,13.50
2008,09,23,13,04,13.60
2008,09,23,13,05,13.60
2008,09,23,13,06,13.60
2008,09,23,13,07,13.60
2008,09,23,13,08,13.50
2008,09,23,13,09,13.40
2008,09,23,13,10,13.40
2008,09,23,13,11,13.50
2008,09,23,13,12,13.60
2008,09,23,13,13,13.60
2008,09,23,13,14,13.70
2008,09,23,13,15,13.80
2008,09,23,13,16,13.80
2008,09,23,13,17,13.80
2008,09,23,13,18,13.80
2008,09,23,13,19,13.70
2008,09,23,13,20,13.70
2008,09,23,13,21,13.70
2008,09,23,13,22,13.80
2008,09,23,13,23,13.80
2008,09,23,13,24,13.90
2008,09,23,13,25,13.90
2008,09,23,13,26,14.00
2008,09,23,13,27,14.00
2008,09,23,13,28,14.10
2008,09,23,13,29,14.20
2008,09,23,13,30,14.20
2008,09,23,13,31,14.20
2008,09,23,13,32,14.30
2008,09,23,13,33,14.30
2008,09,23,13,34,14.30
2008,09,23,13,35,14.40
2008,09,23,13,36,14.40
2008,09,23,13,37,14.50
2008,09,23,13,38,14.50
2008,09,23,13,39,14.50
2008,09,23,13,40,14.50
2008,09,23,13,41,14.60
2008,09,23,13,42,14.50
2008,09,23,13,43,14.50
2008,09,23,13,44,14.50
2008,09,23,13,45,14.60
2008,09,23,13,46,14.60
2008,09,23,13,47,14.60
2008,09,23,13,48,14.60
2008,09,23,13,49,14.60
2008,09,23,13,50,14.60
2008,09,23,13,51,14.70
2008,09,23,13,52,14.80
2008,09,23,13,53,14.80
2008,09,23,13,54,14.90
2008,09,23,13,55,15.00
2008,09,23,13,56,15.00
2008,09,23,13,57,15.00
2008,09,23,13,58,14.90
2008,09,23,13,59,15.00
2008,09,23,14,00,15.00
2008,09,23,14,01,15.00
2008,09,23,14,02,14.80
2008,09,23,14,03,14.80
2008,09,23,14,04,14.90
2008,09,23,14,05,14.80
2008,09,23,14,06,14.70
2008,09,23,14,07,14.70
2008,09,23,14,08,14.60
2008,09,23,14,09,14.60
2008,09,23,14,10,14.50
2008,09,23,14,11,14.50
2008,09,23,14,12,14.50
2008,09,23,14,13,14.40
2008,09,23,14,14,14.20
2008,09,23,14,15,14.20
2008,09,23,14,16,14.10
2008,09,23,14,17,14.10
2008,09,23,14,18,14.10
2008,09,23,14,19,14.10
2008,09,23,14,20,14.10
2008,09,23,14,21,14.20
2008,09,23,14,22,14.20
2008,09,23,14,23,14.30
2008,09,23,14,24,14.40
2008,09,23,14,25,14.50
2008,09,23,14,26,14.60
2008,09,23,14,27,14.70
2008,09,23,14,28,14.70
2008,09,23,14,29,14.70
2008,09,23,14,30,14.70
2008,09,23,14,31,14.70
2008,09,23,14,32,14.70
2008,09,23,14,33,14.80
2008,09,23,14,34,14.80
2008,09,23,14,35,14.80
2008,09,23,14,36,14.90
2008,09,23,14,37,15.00
2008,09,23,14,38,15.00
2008,09,23,14,39,15.00
2008,09,23,14,40,15.00
2008,09,23,14,41,15.00
2008,09,23,14,42,15.00
2008,09,23,14,43,15.00
2008,09,23,14,44,15.00
2008,09,23,14,45,15.00
2008,09,23,14,46,15.00
2008,09,23,14,47,15.00
2008,09,23,14,48,15.00
2008,09,23,14,49,15.00
2008,09,23,14,50,15.00
2008,09,23,14,51,15.00
2008,09,23,14,52,15.00
2008,09,23,14,53,15.00
2008,09,23,14,54,15.00
2008,09,23,14,55,15.00
2008,09,23,14,56,15.00
2008,09,23,14,57,15.10
2008,09,23,14,58,15.10
2008,09,23,14,59,15.00
2008,09,23,15,00,15.00
2008,09,23,15,01,15.00
2008,09,23,15,02,15.00
2008,09,23,15,03,15.00
2008,09,23,15,04,15.00
2008,09,23,15,05,15.00
2008,09,23,15,06,15.00
2008,09,23,15,07,15.00
2008,09,23,15,08,14.90
2008,09,23,15,09,14.80
2008,09,23,15,10,14.70
2008,09,23,15,11,14.80
2008,09,23,15,12,14.80
2008,09,23,15,13,14.80
2008,09,23,15,14,14.80
2008,09,23,15,15,14.80
2008,09,23,15,16,14.80
2008,09,23,15,17,14.70
2008,09,23,15,18,14.60
2008,09,23,15,19,14.50
2008,09,23,15,20,14.40
2008,09,23,15,21,14.40
2008,09,23,15,22,14.40
2008,09,23,15,23,14.40
2008,09,23,15,24,14.40
2008,09,23,15,25,14.40
2008,09,23,15,26,14.40
2008,09,23,15,27,14.30
2008,09,23,15,28,14.30
2008,09,23,15,29,14.20
2008,09,23,15,30,14.10
2008,09,23,15,31,14.10
2008,09,23,15,32,14.10
2008,09,23,15,33,14.10
2008,09,23,15,34,14.10
2008,09,23,15,35,14.00
2008,09,23,15,36,14.10
2008,09,23,15,37,14.10
2008,09,23,15,38,14.10
2008,09,23,15,39,14.10
2008,09,23,15,40,14.20
2008,09,23,15,41,14.20
2008,09,23,15,42,14.20
2008,09,23,15,43,14.20
2008,09,23,15,44,14.30
2008,09,23,15,45,14.30
2008,09,23,15,46,14.30
2008,09,23,15,47,14.40
2008,09,23,15,48,14.40
2008,09,23,15,49,14.50
2008,09,23,15,50,14.50
2008,09,23,15,51,14.50
2008,09,23,15,52,14.50
2008,09,23,15,53,14.50
2008,09,23,15,54,14.40
2008,09,23,15,55,14.40
2008,09,23,15,56,14.40
2008,09,23,15,57,14.30
2008,09,23,15,58,14.30
2008,09,23,15,59,14.30
2008,09,23,16,00,14.30
2008,09,23,16,01,14.30
2008,09,23,16,02,14.30
2008,09,23,16,03,14.30
2008,09,23,16,04,14.30
2008,09,23,16,05,14.40
2008,09,23,16,06,14.40
2008,09,23,16,07,14.30
2008,09,23,16,08,14.30
2008,09,23,16,09,14.20
2008,09,23,16,10,14.20
2008,09,23,16,11,14.20
2008,09,23,16,12,14.20
2008,09,23,16,13,14.20
2008,09,23,16,14,14.20
2008,09,23,16,15,14.20
2008,09,23,16,16,14.20
2008,09,23,16,17,14.20
2008,09,23,16,18,14.20
2008,09,23,16,19,14.20
2008,09,23,16,20,14.30
2008,09,23,16,21,14.30
2008,09,23,16,22,14.30
2008,09,23,16,23,14.40
2008,09,23,16,24,14.40
2008,09,23,16,25,14.50
2008,09,23,16,26,14.40
2008,09,23,16,27,14.40
2008,09,23,16,28,14.50
2008,09,23,16,29,14.50
2008,09,23,16,30,14.60
2008,09,23,16,31,14.60
2008,09,23,16,32,14.60
2008,09,23,16,33,14.60
2008,09,23,16,34,14.70
2008,09,23,16,35,14.70
2008,09,23,16,36,14.70
2008,09,23,16,37,14.70
2008,09,23,16,38,14.70
2008,09,23,16,39,14.70
2008,09,23,16,40,14.70
2008,09,23,16,41,14.70
2008,09,23,16,42,14.80
2008,09,23,16,43,14.70
2008,09,23,16,44,14.70
2008,09,23,16,45,14.60
2008,09,23,16,46,14.50
2008,09,23,16,47,14.50
2008,09,23,16,48,14.40
2008,09,23,16,49,14.40
2008,09,23,16,50,14.40
2008,09,23,16,51,14.40
2008,09,23,16,52,14.50
2008,09,23,16,53,14.50
2008,09,23,16,54,14.60
2008,09,23,16,55,14.60
2008,09,23,16,56,14.60
2008,09,23,16,57,14.60
2008,09,23,16,58,14.60
2008,09,23,16,59,14.50
2008,09,23,17,00,14.50
2008,09,23,17,01,14.50
2008,09,23,17,02,14.40
2008,09,23,17,03,14.40
2008,09,23,17,04,14.40
2008,09,23,17,05,14.40
2008,09,23,17,06,14.40
2008,09,23,17,07,14.50
2008,09,23,17,08,14.50
2008,09,23,17,09,14.60
2008,09,23,17,10,14.60
2008,09,23,17,11,14.60
2008,09,23,17,12,14.60
2008,09,23,17,13,14.60
2008,09,23,17,14,14.60
2008,09,23,17,15,14.60
2008,09,23,17,16,14.60
2008,09,23,17,17,14.60
2008,09,23,17,18,14.60
2008,09,23,17,19,14.60
2008,09,23,17,20,14.70
2008,09,23,17,21,14.60
2008,09,23,17,22,14.60
2008,09,23,17,23,14.60
2008,09,23,17,24,14.60
2008,09,23,17,25,14.60
2008,09,23,17,26,14.60
2008,09,23,17,27,14.60
2008,09,23,17,28,14.60
2008,09,23,17,29,14.60
2008,09,23,17,30,14.60
2008,09,23,17,31,14.60
2008,09,23,17,32,14.60
2008,09,23,17,33,14.60
2008,09,23,17,34,14.60
2008,09,23,17,35,14.60
2008,09,23,17,36,14.60
2008,09,23,17,37,14.60
2008,09,23,17,38,14.60
2008,09,23,17,39,14.60
2008,09,23,17,40,14.60
2008,09,23,17,41,14.60
2008,09,23,17,42,14.60
2008,09,23,17,43,14.60